www.pogodaiklimat.ru

Погода и климат >> Архив погоды >> Ирак >> Salahadin


ПОГОДА в Salahadin

  • Прогноз погоды в Salahadin
  • Монитор погоды в Salahadin
  • Климат города

АРХИВ ПОГОДЫ в Salahadin

Время (UTC), дата Ветер
(напр.,м/с)
 
Видим.   Явления Облачность Т
(С)
Тd
(С)
f
(%)
Тe
(С)
Тes
(С)
Комфортность P
(гПа)
Po
(гПа)
Тmin
(С)
Tmax
(С)
R
(мм)
R24
(мм)
S
(см)
03 14.02 Ю 1 3000 м дымка {дождь} 8/8 600 м
[Cu Sc]
+5.1 +5.1 100 +4 +4 1021.2 1021.0
09 14.02 штиль 0 10 км 3/3 750 м
[Cu hum]
+9.5 +5.3 75 +9 +18 1024.1 1024.0
12 14.02 штиль 0 10 км 9/9 750 м
[Cu Sc]
+9.6 +7.4 86 +9 +9 1025.1 1025.0
15 14.02 штиль 0 10 км 9/9 750 м
[Cu Sc]
+8.0 +7.5 97 +7 +7 1027.0 1027.0
18 14.02 Ю 1 10 км 8/8 750 м
[Cu Sc]
+6.5 +6.3 99 +5 +5 1028.6 1029.0 +11.5
06 15.02 СВ 1 10 км 10/0
[Cs]
+7.5 +3.0 73 +7 +11 1028.3 1028.0 +4.8
15 15.02 ЮВ 2 10 км 10/1
[Cu hum Cs]
+10.6 +0.1 48 +10 +10 1025.6 1026.0
18 15.02 СВ 1 10 км 8/1
[Cu hum Cs]
+9.8 +1.5 56 +10 +10 1026.2 1026.0 +13.3
06 16.02 штиль 0 10 км 10/10 720 м
[Cu Sc]
+8.9 +3.0 66 +8 +8 1027.7 1028.0 +7.5
09 16.02 штиль 0 10 км 10/10 750 м
[Cu Sc]
+9.8 +3.8 66 +9 +9 1026.6 1027.0
12 16.02 штиль 0 10 км {дождь} 10/10 660 м
[Cu Sc]
+10.2 +5.6 73 +10 +10 1024.7 1025.0
15 16.02 В 1 10 км 10/10 600 м
[Cu Sc]
+9.6 +6.4 80 +9 +9 1014.8 1015.0
18 16.02 штиль 0 10 км 10/10 660 м
[Cu Sc]
+9.1 +6.8 86 +8 +8 1024.8 1025.0 +10.4 0.6
06 17.02 ЮВ 1 10 км слабый дождь 10/10 660 м
[Cu Sc]
+10.0 +7.5 84 +10 +10 1021.0 1021.0 +7.3 7
09 17.02 ЮВ 2 10 км 9/9 750 м
[Cu Sc]
+12.0 +7.7 75 +11 +12 1018.6 1019.0
12 17.02 ЮВ 5 10 км 10/10 660 м
[Cu Sc]
+11.4 +8.4 82 +9 +9 1016.2 1016.0
15 17.02 ЮВ 5 10 км {дождь, морось} 9/9 750 м
[Cu Sc]
+10.2 +7.8 85 +7 +7 1015.9 1016.0
18 17.02 ЮЗ 2 8000 м дождь 10/10 660 м
[Cu Sc]
+10.6 +9.1 90 +9 +9 1013.9 1014.0 +12.8 8
06 18.02 СВ 2 9000 м дымка {дождь} 10/4 660 м
[Cu hum As op]
+8.4 +6.5 88 +6 +7 1011.0 1011.0 +8.2 440
12 18.02 СВ 4 10 км {дождь} 9/4
[Cu med, cong Cs]
+9.1 +4.6 73 +6 +8 1008.7 1009.0
15 18.02 ЮЗ 5 8000 м дымка {дождь} 10/10 630 м
[Cu Sc]
+6.2 +5.2 93 +2 +2 1011.9 1012.0
18 18.02 Ю 3 7000 м дождь 10/10 630 м
[Cu Sc]
+5.4 +5.2 99 +2 +2 1013.0 1013.0 +10.1 5
06 19.02 ЮВ 2 10 км 4/3 750 м
[Cu hum Ci fib]
+6.9 +3.9 81 +5 +8 1014.8 1015.0 +3.3 13
09 19.02 ЮВ 3 10 км 4/4 750 м
[Cu med, cong]
+9.8 +5.1 73 +8 +13 1015.9 1016.0
12 19.02 ЮЗ 2 9000 м слабый ливневой дождь 9/9 750 м
[Cu Sc]
+8.3 +6.0 85 +6 +7 1017.7 1018.0
15 19.02 СВ 2 9000 м дымка {ливн. осадки} 8/8 750 м
[Cu Sc]
+8.0 +6.6 91 +6 +6 1019.2 1019.0
18 19.02 штиль 0 10 км 8/8 750 м
[Cu Sc]
+6.8 +5.5 91 +6 +6 1021.4 1021.0 +10.7
03 20.02 штиль 0 10 км 4/4 750 м
[Cu med, cong]
+6.4 +5.5 94 +5 +5 1022.8 1023.0
06 20.02 штиль 0 10 км 8/3 600 м
[Cu med, cong Ac und Ci fib]
+7.4 +5.3 87 +7 +9 1023.0 1023.0 +3.2
09 20.02 Ю 3 10 км 9/9 660 м
[Cu Sc]
+11.0 +7.0 76 +9 +10 1021.1 1021.0
12 20.02 штиль 0 10 км 9/9 600 м
[Cu Sc]
+10.2 +7.0 81 +10 +10 1020.2 1020.0
15 20.02 штиль 0 10 км 9/3 750 м
[Cu med, cong Ac und]
+10.6 +7.0 78 +10 +10 1014.0 1014.0
18 20.02 штиль 0 10 км 9/4 750 м
[Cu med, cong Ac und]
+8.4 +6.4 87 +8 +8 1020.8 1021.0 +11.6

 

Местоположение метеостанции Salahadin (Ирак): широта 36.38 долгота 44.20 высота над уровнем моря 1075 м.

В архиве по умолчанию представлена погода в Salahadin за последнюю неделю. Архивные данные за месяц целиком и за предыдущие месяцы, начиная с января 2011 года, Вы можете получить, выбрав интересующий диапазон дат из раскрывающегося списка и нажав кнопку "Ввод!".

Внимание! Время в таблицах - всемирное. Для получения местного времени необходимо прибавить поправку, которая в Salahadin равна 3 ч.

Смотрите также архив погоды в соседних городах и на ближайших метеорологических станциях:

Погода в Erbeel (Ирак) (31 км)
Погода в Aqraa (Ирак) (50 км)
Погода в Makhmoor (Ирак) (88 км)
Погода в Mosul (Ирак) (94 км)
Погода в Kirkuk (Ирак) (103 км)
Погода в Chamchamal (Ирак) (111 км)
Погода в Dohuk (Ирак) (120 км)
Погода в Hakkari (Турция) (138 км)
Погода в Mahabad (Иран) (143 км)
Погода в Sulaimaniya (Ирак) (146 км)

Пояснения к столбцам:

Ветер - указаны скорость ветра в м/с - средняя за 10 мин, порывы в срок и между сроками (в фигурных скобках) и направление, откуда дует ветер: С - северный, СВ - северо-восточный, В - восточный, ЮВ - юго-восточный, Ю - южный, ЮЗ - юго-западный, З - западный, СЗ - северо-западный.
Видимость - горизонтальная дальность видимости в метрах или километрах. При видимости от 1 до 10 км при отсутствии осадков обычно наблюдается дымка, при ухудшении видимости до 1 км и менее - туман. В сухую погоду видимость может ухудшаться дымом, пылью или мглою.
Явления - указаны атмосферные явления, наблюдавшиеся в срок или в последний час перед сроком; фигурными скобками обозначены явления, наблюдавшиеся между сроками (за 1-3 часа до срока); квадратными скобками обозначены град или гололедные отложения с указанием их диаметра в мм.
Облачность - указаны через наклонную черту общая и нижняя облачность в баллах и высота нижней границы облаков в метрах; квадратными скобками обозначены формы облаков: Ci - перистые, Cs - перисто-слоистые, Cc - перисто-кучевые, Ac - высококучевые, As - высокослоистые, Sc - слоисто-кучевые, Ns - слоисто-дождевые, Cu - кучевые, Cb - кучево-дождевые. Подробнее классификацию облаков см. в Атласе облаков (PDF).
T - Температура воздуха - температура, измеренная на высоте 2 м над землей.
Td - Температура точки росы - температура, при понижении до которой содержащийся в воздухе водяной пар достигнет насыщения.
f - Относительная влажность воздуха - влажноcть воздуха, измеренная на высоте 2 м над землей.
Te - Эффективная температура - температура, которую ощущает одетый по сезону человек в тени. Характеристика душности погоды. При расчете учитывается влияние влажности воздуха и скорости ветра на теплоощущения человека.
Tes - Эффективная температура на солнце - температура, которую ощущает человек, с поправкой на солнечный нагрев. Характеристика знойности погоды. Зависит от высоты солнца над горизонтом, облачности и скорости ветра. Ночью, в пасмурную погоду, а также при ветре 12 м/с и более поправка равна нулю.
P - Атмосферное давление - приведенное к уровню моря атмосферное давление.
Po - Атмосферное давление - измеренное на уровне метеостанции атмосферное давление.
Tmin - Минимальная температура - минимум температуры воздуха на высоте 2 м над землей.
Tmax - Максимальная температура - максимум температуры воздуха на высоте 2 м над землей.
R - Количество осадков - Количество выпавших осадков за период времени, мм. При наведении курсора мыши на число - период времени, за который выпало указанное количество осадков.
R24 - Количество осадков - Количество выпавших осадков за 24 часа, мм.
S - Снежный покров - Высота снежного покрова, см. При наведении курсора мыши на число - состояние снежного покрова и степень покрытия местности в баллах.